ONEWEB-0060 (45455 NORAD) Tracking and Keplerian Element Data

This shows tracking and keplerian element data for the satellite.

Feedback or suggestion? Click here.




ElementValue
Catalog45455
NameONEWEB-0060
Epoch Orbit3205
Epoch Day297.91667824
Epoch Year2020
RAAN71.6571
Inclination87.7969
Eccentricity0.0021801
Argument of Perigee255.5721
Mean Anonmoly180.2785
Mean Motion13.93394546
Decay Rate-0.00021818
L11 45455U 20020AH 20297.91667824 -.00021818 00000-0 -16721-1 0 9990
L22 45455 87.7969 71.6571 0021801 255.5721 180.2785 13.93394546 32055

Live tracking and technical data element details for ONEWEB-0060 (NORAD 45455). ONEWEB-0060 can be tracked NOW for your location showing map with azimuth and elevation plus other details from your city location.

Track the satellite on the map from your city or location and see movement details for azimuth, elevation, latitude, longitude, range, height, and movement on the map or in text.







IsCatalogInMostPopularTable: catalog: 45455, numindb: 47
Update: records affected: 1



GetName: 45455 ONEWEB-0060

Hit Count: updated at: Sat, 24 Oct 2020 23:03:34 GMT